Regional Weather Roundup
Issued by NWS

Home | Current Version | Previous Version | Graphics & Text | Print | Product List | Glossary Off
Versions: 1 2 3 4 5 6 7 8 9 10 11 12 13 14 15 16 17 18 19 20 21 22 23 24 25 26 27 28 29 30 31 32 33 34 35 36 37 38 39 40 41 42 43 44 45 46 47 48 49 50

000
ASUS43 KTOP 201759
RWRKS

WEATHER ROUNDUP FOR KANSAS
NATIONAL WEATHER SERVICE GOODLAND KS
100 PM CDT SAT SEP 20 2014

NOTE:  "FAIR" INDICATES FEW OR NO CLOUDS BELOW 12,000 FEET WITH NO
SIGNIFICANT WEATHER AND/OR OBSTRUCTIONS TO VISIBILITY.

KSZ001>006-013>018-027>032-041>047-201900-
NORTHWEST KANSAS

CITY           SKY/WX    TMP DP  RH WIND       PRES   REMARKS
GOODLAND       SUNNY     79  53  40 NE18G26   30.14R
6HR MIN TEMP:  60; 6HR MAX TEMP:  79;

HAYS           SUNNY     84  66  54 CALM      29.99S
HILL CITY      SUNNY     84  63  49 NE13G21   30.02R
6HR MIN TEMP:  67; 6HR MAX TEMP:  84;

RUSSELL        SUNNY     83  66  56 S7        29.97R
6HR MIN TEMP:  67; 6HR MAX TEMP:  84;

$$

KSZ061>065-074>080-084>089-201900-
SOUTHWEST KANSAS

CITY           SKY/WX    TMP DP  RH WIND       PRES   REMARKS
DODGE CITY     SUNNY     86  61  42 SW8G17    30.02F
6HR MIN TEMP:  62; 6HR MAX TEMP:  87;

ELKHART          N/A     83  63  51 N2          N/A
GARDEN CITY    SUNNY     82  64  54 VRB3      30.03F
6HR MIN TEMP:  60; 6HR MAX TEMP:  83;

GREAT BEND     SUNNY     88  64  45 SW12G20   29.97F
LIBERAL        SUNNY     84  63  48 SW7       30.05F
$$

KSZ066>073-081>083-090>101-201900-
SOUTHEAST KANSAS

CITY           SKY/WX    TMP DP  RH WIND       PRES   REMARKS
CHANUTE        PTSUNNY   80  72  76 S13       30.03F
6HR MIN TEMP:  67; 6HR MAX TEMP:  80;

HUTCHINSON     MOSUNNY   87  65  47 S20       29.98F
6HR MIN TEMP:  66; 6HR MAX TEMP:  88;

NEWTON         MOSUNNY   86  66  51 SW17G24   30.01F
PARSONS        PTSUNNY   80  72  76 S8        30.04F
6HR MIN TEMP:  67; 6HR MAX TEMP:  80;

WICHITA INTL   PTSUNNY   89  64  43 S10G20    29.99F
6HR MIN TEMP:  66; 6HR MAX TEMP:  89;

WICHITA JABRA  MOSUNNY   86  66  51 SW10      29.99F
6HR MIN TEMP:  68; 6HR MAX TEMP:  87;

WINFIELD       PTSUNNY   85  68  56 SW13      30.02F
6HR MIN TEMP:  68; 6HR MAX TEMP:  87;

$$

KSZ007>012-019>026-033>040-048>060-102>105-201900-
NORTHEAST KANSAS

CITY           SKY/WX    TMP DP  RH WIND       PRES   REMARKS
CONCORDIA      SUNNY     83  69  62 W5        29.96S
6HR MIN TEMP:  68; 6HR MAX TEMP:  83;

EMPORIA        MOSUNNY   84  69  60 S16       29.99S
6HR MIN TEMP:  67; 6HR MAX TEMP:  84;

LAWRENCE       SUNNY     85  69  58 SW15      29.97F
6HR MIN TEMP:  67; 6HR MAX TEMP:  85;

MANHATTAN      SUNNY     88  69  53 S10       29.96S
6HR MIN TEMP:  68; 6HR MAX TEMP:  88;

OLATHE IND     SUNNY     83  71  67 SW15G23   30.00F
6HR MIN TEMP:  67; 6HR MAX TEMP:  83;

OLATHE EXE     MOSUNNY   82  70  66 SW12G18   29.99F
6HR MIN TEMP:  67; 6HR MAX TEMP:  82;

SALINA         SUNNY     88  67  49 SW14      29.97S
6HR MIN TEMP:  69; 6HR MAX TEMP:  88;

TOPEKA BILLARD SUNNY     86  70  58 SW9       29.96F
6HR MIN TEMP:  67; 6HR MAX TEMP:  87;

TOPEKA FORBES  SUNNY     86  69  56 SW14      29.97F
6HR MIN TEMP:  67; 6HR MAX TEMP:  86;

$$


USA.gov is the U.S. government's official web portal to all federal, state and local government web resources and services.